Location: Santa Maria di Sala
(45.5070°N, 12.0300°E)
Time: 03:02:18
(UTC+02:00)

Envisat - Pass Details

Date: 24 April 2024
Orbit: 762 x 764 km, 98.3° (Epoch: 24 May)

Event Time Altitude Azimuth Distance (km) Brightness Sun altitude
Rises 03:26:56 0° 27° (NNE) 3,238 7.6 -23.9°
Reaches altitude 10° 03:29:51 10° 44° (NE) 2,306 6.6 -23.5°
Maximum altitude 03:33:33 20° 91° (E) 1,704 5.2 -23.1°
Drops below altitude 10° 03:37:15 10° 139° (SE) 2,292 5.4 -22.7°
Enters shadow 03:38:07 - 145° (SE) 2,549 5.5 -22.6°
